Location: Newark
(3.5000°N, 97.7500°E)
Time: 11:07:52
(UTC+00:00)

N. Korean satellite - Visible Passes

Search period start: 24 September 2020 00:00
Search period end: 04 October 2020 00:00
Orbit: 455 x 503 km, 97.2° (Epoch: 23 September)

Date Brightness Start Highest point End Pass type
(mag) Time Alt. Az. Time Alt. Az. Time Alt. Az.
25 Sep 6.4 22:48:21 10° N 22:51:50 67° WNW 22:55:18 10° SSW visible
26 Sep 8.1 22:22:35 10° NNE 22:25:53 38° E 22:29:08 10° S visible
27 Sep 9.8 21:57:56 10° ENE 21:59:54 14° E 22:01:51 10° SE visible
29 Sep 6.7 22:37:37 10° NNE 22:41:06 76° E 22:44:32 10° S visible
30 Sep 9.0 22:12:12 10° NE 22:15:07 25° E 22:18:00 10° SSE visible
03 Oct 7.6 22:26:58 10° NNE 22:30:18 47° E 22:33:37 10° S visible
